OM6ACB-6 Weather Reports


Display with metric or nautical units.
time (UTC)temp
F
wind
direction
speed
MPH
gust
MPH
rain 1hr
in
rain 24hr
in
rain mn
in
humidity
%
barometer
mb
20260506214551 63 270 7.0 8.0 0.00 0.00 0.00 24 1012.7
20260506213551 63 270 5.0 5.0 0.00 0.00 0.00 24 1012.6
20260506212551 63 270 5.0 5.0 0.00 0.00 0.00 24 1012.5
20260506211551 63 270 5.0 5.0 0.00 0.00 0.00 24 1012.4
20260506210550 63 203 5.0 8.0 0.00 0.00 0.00 24 1012.3
20260506205550 61 270 1.0 4.0 0.00 0.00 0.00 24 1012.0
20260506204550 61 234 1.0 4.0 0.00 0.00 0.00 24 1011.9
20260506203549 62 342 1.0 2.0 0.00 0.00 0.00 24 1012.0
20260506202549 63 257 2.0 4.0 0.00 0.00 0.00 24 1012.2
20260506201549 64 304 2.0 4.0 0.00 0.00 0.00 24 1012.4
20260506200549 64 259 3.0 4.0 0.00 0.00 0.00 24 1012.4
20260506195548 63 253 2.0 5.0 0.00 0.00 0.00 24 1012.4
20260506194548 63 276 2.0 4.0 0.00 0.00 0.00 24 1012.3
20260506193548 63 265 2.0 3.0 0.00 0.00 0.00 24 1012.2
20260506192547 63 278 2.0 4.0 0.00 0.00 0.00 24 1011.9
20260506191547 62 266 1.0 3.0 0.00 0.00 0.00 24 1011.8
20260506190547 63 266 0.0 3.0 0.00 0.00 0.00 24 1011.7
20260506185546 63 275 1.0 4.0 0.00 0.00 0.00 24 1011.7
20260506184546 65 203 1.0 3.0 0.00 0.00 0.00 23 1011.8
20260506183546 66 253 2.0 5.0 0.00 0.00 0.00 23 1011.9
20260506182546 67 225 4.0 6.0 0.00 0.00 0.00 23 1011.9
20260506181545 67 248 6.0 10.0 0.00 0.00 0.00 23 1011.9
20260506180545 68 256 4.0 10.0 0.00 0.00 0.00 23 1011.9
20260506175545 67 0 0.0 0.0 0.00 0.00 0.00 23 1011.9
20260506174544 67 270 0.0 0.0 0.00 0.00 0.00 23 1011.9
20260506173544 67 257 0.0 0.0 0.00 0.00 0.00 23 1011.9
20260506172544 68 258 3.0 5.0 0.00 0.00 0.00 23 1012.1
20260506171543 -25 270 5.0 5.0 0.00 0.00 0.00 13 944.5
20260506170543 68 265 3.0 5.0 0.00 0.00 0.00 23 1012.2
20260506165543 68 232 1.0 2.0 0.00 0.00 0.00 22 1012.2
20260506164543 68 223 2.0 4.0 0.00 0.00 0.00 23 1012.2
20260506163542 69 257 4.0 5.0 0.00 0.00 0.00 22 1012.2
20260506162542 69 244 3.0 7.0 0.00 0.00 0.00 22 1012.3
20260506161542 69 256 3.0 5.0 0.00 0.00 0.00 22 1012.5
20260506160542 69 252 4.0 7.0 0.00 0.00 0.00 22 1012.6
20260506155541 70 241 5.0 7.0 0.00 0.00 0.00 22 1012.8
20260506154541 72 267 4.0 6.0 0.00 0.00 0.00 21 1013.0
20260506153541 73 265 4.0 5.0 0.00 0.00 0.00 21 1013.2
20260506152540 71 246 5.0 7.0 0.00 0.00 0.00 22 1013.1
20260506151540 71 225 4.0 7.0 0.00 0.00 0.00 22 1013.3
20260506150540 71 255 5.0 6.0 0.00 0.00 0.00 22 1013.1
20260506145539 72 238 4.0 5.0 0.00 0.00 0.00 21 1013.3
20260506144539 73 269 5.0 10.0 0.00 0.00 0.00 21 1013.4
20260506143539 74 256 2.0 4.0 0.00 0.00 0.00 21 1013.6
20260506142539 75 252 6.0 10.0 0.00 0.00 0.00 21 1013.6
20260506141538 70 210 8.0 10.0 0.00 0.00 0.00 22 1013.2
20260506140538 71 248 4.0 8.0 0.00 0.00 0.00 22 1013.3
20260506135538 74 242 5.0 10.0 0.00 0.00 0.00 21 1013.6
20260506134537 72 254 7.0 10.0 0.00 0.00 0.00 21 1013.4
20260506133537 72 227 6.0 9.0 0.00 0.00 0.00 21 1013.3
20260506132537 76 271 7.0 9.0 0.00 0.00 0.00 20 1013.6
20260506131537 74 300 3.0 9.0 0.00 0.00 0.00 21 1013.5
20260506130536 75 279 3.0 5.0 0.00 0.00 0.00 21 1013.4
20260506125536 73 251 3.0 6.0 0.00 0.00 0.00 21 1013.5
20260506124536 76 285 3.0 6.0 0.00 0.00 0.00 20 1013.7
20260506123535 77 270 5.0 7.0 0.00 0.00 0.00 20 1013.9
20260506122535 79 265 7.0 8.0 0.00 0.00 0.00 20 1013.8
20260506121535 77 254 6.0 8.0 0.00 0.00 0.00 20 1013.6
20260506120534 78 234 8.0 9.0 0.00 0.00 0.00 20 1014.0
20260506115534 82 278 2.0 7.0 0.00 0.00 0.00 20 1014.2
20260506114534 77 76 6.0 8.0 0.00 0.00 0.00 20 1013.9
20260506113534 75 301 6.0 8.0 0.00 0.00 0.00 21 1013.8
20260506112533 78 238 5.0 6.0 0.00 0.00 0.00 20 1014.1
20260506111533 76 283 5.0 6.0 0.00 0.00 0.00 20 1013.9
20260506105532 74 241 5.0 8.0 0.00 0.00 0.00 21 1014.2
20260506104532 75 292 4.0 7.0 0.00 0.00 0.00 21 1014.0
20260506103532 74 248 3.0 8.0 0.00 0.00 0.00 21 1014.0
20260506102532 76 286 3.0 9.0 0.00 0.00 0.00 20 1014.2
20260506101531 76 263 4.0 9.0 0.00 0.00 0.00 20 1014.1
20260506100531 73 269 4.0 9.0 0.00 0.00 0.00 21 1014.0
20260506095531 74 257 6.0 8.0 0.00 0.00 0.00 21 1014.2
20260506094530 71 254 5.0 7.0 0.00 0.00 0.00 22 1014.0
20260506093530 71 247 4.0 7.0 0.00 0.00 0.00 22 1014.0
20260506092530 71 221 4.0 7.0 0.00 0.00 0.00 22 1013.9
20260506091529 71 212 4.0 6.0 0.00 0.00 0.00 22 1014.0
20260506090529 72 228 3.0 4.0 0.00 0.00 0.00 21 1014.0
20260506085529 71 264 3.0 5.0 0.00 0.00 0.00 22 1013.9
20260506084529 71 273 5.0 8.0 0.00 0.00 0.00 22 1013.9
20260506083528 70 257 4.0 6.0 0.00 0.00 0.00 22 1013.8
20260506082528 68 259 3.0 5.0 0.00 0.00 0.00 23 1013.7
20260506081528 67 316 4.0 6.0 0.00 0.00 0.00 23 1013.7
20260506080527 67 262 4.0 6.0 0.00 0.00 0.00 23 1013.6
20260506073527 67 249 4.0 8.0 0.00 0.00 0.00 23 1013.6
20260506072526 67 281 2.0 5.0 0.00 0.00 0.00 23 1013.6
20260506071526 65 284 4.0 8.0 0.00 0.00 0.00 23 1013.4
20260506070526 63 300 4.0 8.0 0.00 0.00 0.00 24 1013.5
20260506061524 61 283 3.0 6.0 0.00 0.00 0.00 24 1013.1
20260506060524 62 296 4.0 6.0 0.00 0.00 0.00 24 1013.2
20260506050522 55 0 0.0 0.0 0.00 0.00 0.00 26 1012.5
20260506044522 55 0 0.0 0.0 0.00 0.00 0.00 26 1012.4
20260506043521 55 0 0.0 0.0 0.00 0.00 0.00 26 1012.2
20260506042521 55 0 0.0 0.0 0.00 0.00 0.00 26 1012.1
20260506041521 55 0 0.0 0.0 0.00 0.00 0.00 26 1012.1
20260506040520 55 0 0.0 0.0 0.00 0.00 0.00 26 1012.1
20260506035520 55 314 0.0 2.0 0.00 0.00 0.00 26 1012.0
20260506034520 55 315 2.0 2.0 0.00 0.00 0.00 26 1011.9
20260506033520 55 315 2.0 2.0 0.00 0.00 0.00 26 1012.1
20260506032519 56 315 2.0 2.0 0.00 0.00 0.00 26 1012.0
20260506031519 56 288 2.0 4.0 0.00 0.00 0.00 26 1012.0
20260506030519 56 225 4.0 4.0 0.00 0.00 0.00 26 1011.9
20260506025518 56 225 4.0 4.0 0.00 0.00 0.00 26 1011.9
20260506024518 56 225 4.0 4.0 0.00 0.00 0.00 26 1012.0
20260506023518 56 225 4.0 4.0 0.00 0.00 0.00 26 1012.0
20260506022517 56 225 4.0 4.0 0.00 0.00 0.00 26 1011.9
20260506021517 56 225 4.0 4.0 0.00 0.00 0.00 26 1012.0
20260506020517 56 225 4.0 4.0 0.00 0.00 0.00 26 1011.9
20260506015517 56 225 4.0 4.0 0.00 0.00 0.00 26 1011.9
20260506014516 56 140 1.0 4.0 0.00 0.00 0.00 26 1011.9
20260506013516 56 270 3.0 3.0 0.00 0.00 0.00 26 1011.8
20260506012516 57 270 3.0 3.0 0.00 0.00 0.00 26 1011.9
20260506011515 57 270 3.0 3.0 0.00 0.00 0.00 26 1011.9
20260506010515 57 270 3.0 3.0 0.00 0.00 0.00 26 1011.8
20260506005515 57 270 3.0 3.0 0.00 0.00 0.00 26 1011.9
20260506004515 57 270 3.0 3.0 0.00 0.00 0.00 26 1011.9
20260506003514 57 265 3.0 4.0 0.00 0.00 0.00 26 1012.0
20260506002514 58 135 4.0 4.0 0.00 0.00 0.00 25 1012.0
20260506001514 58 135 4.0 4.0 0.00 0.00 0.00 25 1012.0
20260506000513 58 211 3.0 4.0 0.00 0.00 0.00 25 1012.0
20260505235513 58 270 2.0 2.0 0.00 0.00 0.00 25 1012.0
20260505234513 58 270 2.0 2.0 0.00 0.00 0.00 25 1012.0
20260505233513 64 270 2.0 2.0 0.00 0.00 0.00 24 1012.6
20260505232512 64 270 2.0 2.0 0.00 0.00 0.00 24 1012.6
20260505231512 64 270 0.0 2.0 0.00 0.00 0.00 24 1012.7
20260505230514 64 0 0.0 0.0 0.00 0.00 0.00 24 1012.7
20260505225511 64 0 0.0 0.0 0.00 0.00 0.00 24 1012.7
20260505224511 64 270 4.0 4.0 0.00 0.00 0.00 24 1012.7
20260505223511 64 270 4.0 4.0 0.00 0.00 0.00 24 1012.7
20260505222511 64 270 4.0 4.0 0.00 0.00 0.00 24 1012.7
20260505221510 64 270 4.0 4.0 0.00 0.00 0.00 24 1012.7
20260505220510 64 270 4.0 4.0 0.00 0.00 0.00 24 1012.7
20260505215510 64 270 4.0 4.0 0.00 0.00 0.00 24 1012.7